Tracking 19193 objects as of 22-Jun-2018
HD Live streaming from Space Station
objects crossing your sky now

FENGYUN 1C DEB

Track FENGYUN 1C DEB now!
10-day predictions


NORAD ID: 31389
Int'l Code: 1999-025BSV
Perigee: 809.8 km
Apogee: 900.0 km
Inclination: 99.1 °
Period: 101.9 minutes
Semi major axis: 7225 km
RCS: 0.0064 m2 (small)
Launch date: May 10, 1999
Source: People's Republic of China (PRC)
Launch site: Taiyaun Space Center, China (TSC)

Note: This is SATELLITE DEBRIS
aabbcc
Your satellite tracking list
Your tracking list is empty




NASA's NSSDC Master Catalog

Two Line Element Set (TLE):
1 31389U 99025BSV 18172.62911906 +.00000559 +00000-0 +31607-3 0  9991
2 31389 099.0863 219.7485 0062392 088.7616 063.8839 14.13400102576499
Source of the keplerian elements: AFSPC